Location: Middle Street
(51.7167°N, 0.0333°E)
Time: 03:19:09
(UTC+00:00)

NOSS 3-1 (C) - Pass Details

Date: 20 January 2021
Orbit: 723 x 1485 km, 63.3° (Epoch: 22 February)

Event Time Altitude Azimuth Distance (km) Brightness Sun altitude
Rises 17:30:09 0° 308° (NW) 3,710 7.0 -9.5°
Reaches altitude 10° 17:32:41 10° 315° (NW) 2,865 6.3 -9.8°
Maximum altitude 17:39:19 46° 28° (NNE) 1,551 4.3 -10.8°
Drops below altitude 10° 17:47:11 10° 100° (E) 3,390 5.8 -12.0°
Enters shadow 17:47:13 10° 100° (E) 3,404 5.8 -12.0°
